Flag for Jamaica Weather past 2 weeks in Montego Bay, Jamaica

Now
88 °F

Passing clouds.


Feels Like: 102 °F
Forecast: N/A
Wind: 15 mph from East

Location: Montego Bay / Sangster

Current Time: Jul 28, 2014 at 5:08:17 PM

Latest Report: Jul 28, 2014 at 4:00 PM


Visibility: N/A

Pressure: 29.95 "Hg

Humidity: 75%

Dew point: 79 °F

Location of Montego BayLocation

Historic Weather in Montego Bay — Graph

°F

Montego Bay temperature yesterday

Maximum temperature yesterday: 90 °F (at 12:00 PM)
Minimum temperature yesterday: 79 °F (at 1:00 AM)
Average temperature yesterday: 84 °F

Past Weeks' High & Low Weather Summary

 TemperatureHumidityPressure
High91 °F (Jul 15, 1:00 PM)94% (Jul 15, 3:00 AM)30.07 "Hg (Jul 15, 3:00 AM)
Low77 °F (Jul 23, 5:00 AM)55% (Jul 21, 1:00 PM)29.89 "Hg (Jul 20, 4:00 PM)
Average84 °F75%29.98 "Hg
* Reported Jul 13 4:00 PM — Jul 28 4:00 PM, Montego Bay, Weather by CustomWeather, © 2014

Note: Actual official high and low records may vary slightly from our data, if they occured in-between our weather recording intervals... More about our weather records

Advertising

Montego Bay weather history for previous 24 hours

 ConditionsComfort  
Time TempWeatherWind HumidityBarometerVisibility
4:00 PM
Jul 28
88 °FPassing clouds.15 mph75%29.95 "HgN/A
3:00 PM90 °FPassing clouds.16 mph75%29.95 "HgN/A
2:00 PM90 °FPassing clouds.14 mph71%29.98 "HgN/A
1:00 PM90 °FPassing clouds.20 mph71%29.98 "HgN/A
12:00 PM90 °FPassing clouds.16 mph71%30.01 "HgN/A
11:00 AM90 °FPassing clouds.15 mph71%30.01 "HgN/A
10:00 AM88 °FPassing clouds.16 mph75%30.04 "HgN/A
9:00 AM88 °FScattered clouds.12 mph75%30.01 "HgN/A
8:00 AM86 °FPassing clouds.14 mph75%30.01 "HgN/A
7:00 AM82 °FPassing clouds.3 mph74%30.01 "HgN/A
6:00 AM79 °FPassing clouds.1 mph79%30.01 "HgN/A
5:00 AM79 °FPassing clouds.2 mph74%29.98 "HgN/A
4:00 AM79 °FPassing clouds.3 mphN/A29.98 "HgN/A
3:00 AM81 °FPassing clouds.3 mph70%29.98 "HgN/A
2:00 AM79 °FPassing clouds.3 mph79%29.98 "HgN/A
1:00 AM81 °FPassing clouds.5 mph74%30.01 "HgN/A
12:00 AM81 °FPassing clouds.5 mph89%30.04 "HgN/A
11:00 PM
Jul 27
82 °FPassing clouds.3 mph84%30.04 "HgN/A
10:00 PM82 °FPassing clouds.9 mph79%30.07 "HgN/A
9:00 PM82 °FPassing clouds.6 mph84%30.04 "HgN/A
8:00 PM84 °FPassing clouds.6 mph79%30.04 "HgN/A
7:00 PM84 °FThunderstorms. Passing clouds.6 mph79%30.01 "HgN/A
6:00 PM88 °FPassing clouds.10 mph66%29.98 "HgN/A
5:00 PM88 °FPassing clouds.14 mph59%29.95 "HgN/A
Weather by CustomWeather, © 2014

See weather overviewHow to use our weather pages